Location: Waco, TX
(31.5480°N, 97.1670°W)
Time: 13:41:56
(UTC-05:00)

ISS - Pass Details

Date: 04 May 2021
Orbit: 417 x 422 km, 51.6° (Epoch: 15 May)

Event Time Altitude Azimuth Distance (km) Brightness Sun altitude
Rises 03:24:50 0° 275° (W) 2,356 - -34.4°
Reaches altitude 10° 03:28:29 10° 316° (NW) 1,497 - -34.0°
Maximum altitude 03:29:16 11° 330° (NNW) 1,462 - -33.9°
Drops below altitude 10° 03:30:03 10° 343° (NNW) 1,499 - -33.8°
Exits shadow 03:31:47 - 8° (N) 1,803 0.2 -33.6°
Sets 03:33:44 0° 25° (NNE) 2,368 1.1 -33.3°
